Location: Munkebjergskolens Observatorium
(55.3864°N, 10.3987°E)
Time: 01:34:01
(UTC+01:00)

BlueWalker 3 - Pass Details

Date: 01 December 2022
Orbit: 498 x 517 km, 53.2° (Epoch: 08 February)

Event Time Altitude Azimuth Distance (km) Brightness Sun altitude
Rises 17:14:00 0° 244° (WSW) 2,630 7.9 -10.6°
Reaches altitude 10° 17:16:14 10° 239° (WSW) 1,741 6.2 -10.9°
Maximum altitude 17:20:04 50° 164° (SSE) 659 2.5 -11.4°
Enters shadow 17:23:00 16° 92° (E) 1,403 3.6 -11.8°
